This is the latest recevied weather packets stored in our database for station/object N0NPO. If no packets are shown the sender has not sent any weather packets the latest 10 day(s).
| Time | Temp. | Humidity | Pressure | Rain* | Wind** | Luminosity | Snow |
|---|---|---|---|---|---|---|---|
| 1778135604 | 4.44° C | 1% | 1014.3 hPa | 0 mm | - | 0 W/m² | - |
| 1778135301 | 5° C | 1% | 1014.3 hPa | 0 mm | - | 0 W/m² | - |
| 1778134998 | 5° C | 1% | 1014.4 hPa | 0 mm | - | 0 W/m² | - |
| 1778134696 | 5.56° C | 1% | 1014.4 hPa | 0 mm | - | 0 W/m² | - |
| 1778134394 | 6.11° C | 1% | 1014.4 hPa | 0 mm | - | 0 W/m² | - |
| 1778134092 | 6.11° C | 1% | 1014.5 hPa | 0 mm | - | 0 W/m² | - |
| 1778133788 | 6.67° C | 1% | 1014.6 hPa | 0 mm | - | 0 W/m² | - |
| 1778133485 | 6.11° C | 1% | 1014.6 hPa | 0 mm | - | 0 W/m² | - |
| 1778133180 | 6.67° C | 1% | 1014.8 hPa | 0 mm | - | 0 W/m² | - |
| 1778132877 | 6.67° C | 1% | 1014.6 hPa | 0 mm | - | 0 W/m² | - |
| 1778132573 | 6.67° C | 1% | 1014.8 hPa | 0 mm | - | 0 W/m² | - |
| 1778132271 | 6.67° C | 1% | 1014.8 hPa | 0 mm | - | 0 W/m² | - |
| 1778131968 | 6.67° C | 1% | 1014.9 hPa | 0 mm | - | 0 W/m² | - |
| 1778131667 | 6.67° C | 1% | 1014.8 hPa | 0 mm | - | 0 W/m² | - |
| 1778131363 | 6.67° C | 1% | 1014.8 hPa | 0 mm | - | 0 W/m² | - |
| 1778131061 | 6.67° C | 1% | 1014.9 hPa | 0 mm | - | 0 W/m² | - |
| 1778130758 | 6.67° C | 1% | 1014.9 hPa | 0 mm | - | 0 W/m² | - |
| 1778130454 | 7.22° C | 1% | 1015 hPa | 0 mm | - | 0 W/m² | - |
| 1778130152 | 7.22° C | 1% | 1015.1 hPa | 0 mm | - | 0 W/m² | - |
| 1778129848 | 7.22° C | 1% | 1015 hPa | 0 mm | - | 0 W/m² | - |
| 1778129544 | 7.22° C | 1% | 1014.9 hPa | 0 mm | - | 0 W/m² | - |
| 1778129242 | 7.22° C | 1% | 1015.2 hPa | 0 mm | - | 0 W/m² | - |
| 1778128938 | 7.22° C | 1% | 1015.3 hPa | 0 mm | - | 0 W/m² | - |
| 1778128634 | 7.22° C | 1% | 1015.1 hPa | 0 mm | - | 0 W/m² | - |
| 1778128331 | 6.67° C | 1% | 1015 hPa | 0 mm | - | 0 W/m² | - |
* Rain latest hour (hover to see other rain measurements)
** Current wind speed in m/s (hover to see current wind gust speed)